Other Public Products
Issued by NWS Charleston, SC

Current Version | Previous Version | Graphics & Text | Print | Product List | Glossary On
Versions: 1 2 3 4 5 6 7 8 9 10 11 12 13 14 15 16 17 18 19 20 21 22 23 24 25 26 27 28 29 30 31 32 33 34 35 36 37 38 39 40 41 42 43 44 45 46 47 48 49 50
000 FPUS82 KCHS 240227 OPUCHS TEST...KCHS/KSAV Gateway Observations...TEST National Weather Service Charleston SC 1000 PM EDT MON APR 23 2018 NOTE: "fair" indicates few or no clouds below 12,000 feet with no significant weather and/or obstructions to visibility. SCZ050-WAZ558-NCZ071-TXZ119-213-PAZ071-DCZ001-FLZ074-172-MI076- NYZ176-178-MAZ016-IL014-TNZ027-NJZ106-GAZ044-MD014-240300- ...Gateway Observations for Charleston International... CITY SKY/WX TMP DP RH WIND PRES REMARKS Chas Airport LGT RAIN 67 65 93 SE18G25 29.98F FOG Seattle MOSUNNY 65 37 35 N15 30.21F Charlotte RAIN 57 56 96 E12 30.10F FOG Dallas DFW CLEAR 70 51 51 N3 29.99R Dallas Love PTCLDY 71 52 50 CALM 30.00R Philladelphia FAIR 53 25 33 S7 30.43F Wash National MOCLDY 58 30 34 SE8 30.39R Baltimore MOCLDY 57 26 30 SE5 30.38S Miami FAIR 77 74 90 S3 30.01R Detroit CLOUDY 54 41 61 S3 30.19R Newark MOCLDY 50 43 77 SE5 30.44R Laguardia MOCLDY 52 38 58 VRB6 30.44S J F K MOCLDY 46 43 89 SE6 30.46S Boston Logan FAIR 49 24 37 S13 30.44F Ft. Lauderdale FAIR 78 75 90 S8 30.00R Chicago O`Hare CLOUDY 52 26 36 NE14 30.12R Chicago Midway LGT RAIN 51 31 46 NE9 30.12S Houston Bush FAIR 71 54 54 NW3 30.00R Houston Hobby FAIR 73 50 44 NW5 29.99R Nashville LGT RAIN 59 55 87 NE5 29.92R Atlanta TSTM 62 62 100 E14 29.87S $$ GAZ044-118-TXZ119-213-NCZ071-DCZ001-MDZ014-506-PAZ021-071-NJZ106- NYZ176-178-MAZ106-OHZ011-021-055-MIZ076-KYZ091-ILZ014-INZ047- MNZ060-ONZ431-240300- ...Gateway Observations for Savannah International... CITY SKY/WX TMP DP RH WIND PRES REMARKS Savannah Arpt CLOUDY 69 67 93 SE9 29.93R Atlanta TSTM 62 62 100 E14 29.87S Charlotte RAIN 57 56 96 E12 30.10F FOG Dallas DFW CLEAR 70 51 51 N3 29.99R Houston Bush FAIR 71 54 54 NW3 30.00R Wash National MOCLDY 58 30 34 SE8 30.39R Wash Dulles CLOUDY 57 27 31 SE9 30.37S Baltimore MOCLDY 57 26 30 SE5 30.38S Philadelphia FAIR 53 25 33 S7 30.43F Newark MOCLDY 50 43 77 SE5 30.44R Laguardia MOCLDY 52 38 58 VRB6 30.44S J F K MOCLDY 46 43 89 SE6 30.46S Boston FAIR 49 24 37 S13 30.44F Pittsburg CLOUDY 63 38 39 SE9 30.21S Akron CLOUDY 57 39 51 SW6 30.21R Cleveland LGT RAIN 56 47 71 SW6 30.21R Cincinnati CLOUDY 53 49 86 E13 30.05F Columbus LGT RAIN 52 48 87 E9 30.15S Detroit CLOUDY 54 41 61 S3 30.19R Chicago O`Hare CLOUDY 52 26 36 NE14 30.12R Minneapolis FAIR 64 39 39 W6 30.12S Indianapolis CLOUDY 54 51 90 E14 30.04R Toronto Canada MOCLDY 55 19 24 NE3 30.22S $$

USA.gov is the U.S. government's official web portal to all federal, state and local government web resources and services.